TimeCST,TemperatureF,Dew PointF,Humidity,Sea Level PressureIn,VisibilityMPH,Wind Direction,Wind SpeedMPH,Gust SpeedMPH,PrecipitationIn,Events,Conditions,WindDirDegrees,DateUTC
12:31 AM,35.6,35.6,100,30.07,3.0,North,10.4,-,N/A,,Light Drizzle,10,2013-11-26 06:31:00
12:58 AM,35.6,35.4,99,30.06,3.0,North,10.4,-,0.00,,Light Drizzle,360,2013-11-26 06:58:00
1:29 AM,35.6,35.6,100,30.06,5.0,North,10.4,-,N/A,,Light Drizzle,360,2013-11-26 07:29:00
1:58 AM,36.0,35.8,99,30.04,3.0,North,18.4,-,0.00,,Light Drizzle,360,2013-11-26 07:58:00
2:23 AM,35.6,35.6,100,30.05,3.0,North,16.1,-,N/A,,Light Drizzle,350,2013-11-26 08:23:00
2:34 AM,35.6,35.6,100,30.06,3.0,NNW,16.1,-,N/A,,Light Drizzle,340,2013-11-26 08:34:00
2:58 AM,35.8,35.6,99,30.04,2.0,North,12.7,-,0.00,,Light Drizzle,360,2013-11-26 08:58:00
3:10 AM,35.6,35.6,100,30.06,2.0,NNW,10.4,19.6,N/A,,Light Drizzle,340,2013-11-26 09:10:00
3:23 AM,35.6,35.6,100,30.06,2.0,North,12.7,-,N/A,,Light Drizzle,350,2013-11-26 09:23:00
3:33 AM,35.6,35.6,100,30.05,2.0,North,12.7,-,N/A,,Light Drizzle,350,2013-11-26 09:33:00
3:58 AM,36.1,35.8,99,30.06,2.0,North,11.5,-,0.00,,Light Drizzle,360,2013-11-26 09:58:00
4:58 AM,36.5,36.3,99,30.09,2.0,NNW,11.5,-,N/A,,Light Drizzle,340,2013-11-26 10:58:00
5:11 AM,37.4,35.6,93,30.08,2.0,North,11.5,-,N/A,,Light Drizzle,350,2013-11-26 11:11:00
5:26 AM,37.4,35.6,93,30.07,2.0,North,10.4,-,N/A,,Light Drizzle,350,2013-11-26 11:26:00
5:28 AM,37.4,35.6,93,30.07,2.0,North,10.4,-,N/A,,Light Drizzle,350,2013-11-26 11:28:00
5:57 AM,37.4,35.6,93,30.12,3.0,NNW,12.7,-,0.01,,Light Drizzle,340,2013-11-26 11:57:00
6:58 AM,36.5,36.3,99,30.09,5.0,NNW,13.8,-,0.00,,Overcast,340,2013-11-26 12:58:00
7:58 AM,36.9,36.3,98,30.09,9.0,North,9.2,-,0.00,Rain,Light Rain,360,2013-11-26 13:58:00
8:27 AM,37.4,37.4,100,30.09,2.0,North,12.7,-,N/A,Rain,Light Rain,350,2013-11-26 14:27:00
8:49 AM,37.4,37.4,100,30.08,4.0,North,10.4,-,N/A,Rain,Light Rain,360,2013-11-26 14:49:00
8:58 AM,37.4,37.0,99,30.09,5.0,North,11.5,-,0.02,Rain,Light Rain,360,2013-11-26 14:58:00
9:08 AM,37.4,37.4,100,30.09,9.0,North,10.4,-,N/A,,Light Drizzle,360,2013-11-26 15:08:00
9:47 AM,37.4,37.4,100,30.10,1.8,North,9.2,-,N/A,Rain,Light Rain,10,2013-11-26 15:47:00
9:58 AM,37.9,37.0,97,30.12,1.8,North,10.4,-,0.01,Rain,Light Rain,10,2013-11-26 15:58:00
10:05 AM,37.4,37.4,100,30.10,1.8,North,9.2,-,N/A,Rain-Snow,Light Rain,10,2013-11-26 16:05:00
10:17 AM,37.4,37.4,100,30.09,2.5,NNE,9.2,-,N/A,Rain,Light Rain,20,2013-11-26 16:17:00
10:58 AM,38.1,37.8,99,30.12,2.0,NNW,12.7,-,0.01,,Light Drizzle,340,2013-11-26 16:58:00
11:33 AM,39.2,37.4,93,30.07,3.0,North,12.7,-,N/A,Rain,Light Rain,360,2013-11-26 17:33:00
11:58 AM,38.8,37.8,96,30.07,5.0,North,12.7,-,0.04,Rain,Light Rain,350,2013-11-26 17:58:00
12:58 PM,39.0,37.9,96,30.06,10.0,North,12.7,-,0.03,Rain,Light Rain,360,2013-11-26 18:58:00
1:58 PM,39.2,38.1,96,30.06,5.0,North,12.7,-,0.02,Rain,Light Rain,360,2013-11-26 19:58:00
2:58 PM,40.1,39.7,99,30.06,5.0,NNW,11.5,-,0.05,Rain,Light Rain,340,2013-11-26 20:58:00
3:58 PM,40.8,40.1,97,30.08,5.0,NNW,12.7,-,0.06,Rain,Light Rain,340,2013-11-26 21:58:00
4:13 PM,41.0,39.2,93,30.07,8.0,NNW,11.5,-,N/A,Rain,Light Rain,340,2013-11-26 22:13:00
4:58 PM,41.0,39.6,95,30.09,10.0,NNW,10.4,-,0.02,,Overcast,340,2013-11-26 22:58:00
5:25 PM,41.0,39.2,93,30.10,10.0,NNW,10.4,-,N/A,,Mostly Cloudy,340,2013-11-26 23:25:00
5:58 PM,40.8,39.6,95,30.12,10.0,NNW,6.9,-,N/A,,Scattered Clouds,340,2013-11-26 23:58:00
6:58 PM,39.0,38.7,99,30.15,5.0,WNW,4.6,-,N/A,,Scattered Clouds,300,2013-11-27 00:58:00
7:08 PM,39.2,39.2,100,30.14,8.0,NNW,2.3,-,N/A,,Partly Cloudy,340,2013-11-27 01:08:00
7:28 PM,39.2,39.2,100,30.15,7.0,NW,2.3,-,N/A,,Clear,310,2013-11-27 01:28:00
7:48 PM,37.4,37.4,100,30.15,4.0,Calm,Calm,-,N/A,,Clear,0,2013-11-27 01:48:00
7:58 PM,37.9,37.8,99,30.17,5.0,Calm,Calm,-,N/A,,Clear,0,2013-11-27 01:58:00
8:58 PM,36.1,36.0,99,30.19,6.0,NNW,3.5,-,N/A,,Clear,340,2013-11-27 02:58:00
9:58 PM,35.4,34.3,96,30.22,10.0,NNW,5.8,-,N/A,,Clear,340,2013-11-27 03:58:00
10:58 PM,36.3,33.1,88,30.24,10.0,North,9.2,-,N/A,,Clear,350,2013-11-27 04:58:00
11:58 PM,36.0,32.5,87,30.25,10.0,North,9.2,-,N/A,,Clear,350,2013-11-27 05:58:00